CW5752 Weather Reports


time (UTC)temp
F
wind
direction
speed
knots
gust
knots
rain 1hr
in
rain 24hr
in
rain mn
in
humidity
%
barometer
mb
20210122061029 32 0.0 0.0 0.00 0.00 0.00 91 1014.5
20210122060023 32 0.0 0.0 0.00 0.00 0.00 90 1014.5
20210122055021 31 0.0 0.0 0.00 0.00 0.00 91 1014.3
20210122054030 31 0.0 0.0 0.00 0.00 0.00 90 1014.2
20210122053030 31 0.0 0.0 0.00 0.00 0.00 90 1014.1
20210122052025 31 0.0 0.0 0.00 0.00 0.00 90 1014.1
20210122051029 32 0.0 0.0 0.00 0.00 0.00 90 1014.1
20210122050032 32 0.0 0.0 0.00 0.00 0.00 89 1014.0
20210122045024 32 0.0 0.0 0.00 0.00 0.00 91 1013.9
20210122044036 32 0.0 0.0 0.00 0.00 0.00 90 1014.0
20210122043023 33 0.0 0.0 0.00 0.00 0.00 90 1014.1
20210122042034 33 0.0 0.0 0.00 0.00 0.00 90 1013.9
20210122041024 33 0.0 0.0 0.00 0.00 0.00 90 1013.9
20210122040030 32 0.0 0.0 0.00 0.00 0.00 90 1013.8
20210122035027 33 0.0 0.0 0.00 0.00 0.00 90 1013.8
20210122034026 32 0.0 0.0 0.00 0.00 0.00 90 1013.8
20210122033022 32 0.0 0.0 0.00 0.00 0.00 89 1013.5
20210122032032 33 0.0 0.0 0.00 0.00 0.00 89 1013.6
20210122031036 33 0.0 0.0 0.00 0.00 0.00 89 1013.7
20210122030023 33 0.0 0.0 0.00 0.00 0.00 88 1013.6
20210122025021 34 0.0 0.0 0.00 0.00 0.00 88 1013.6
20210122024026 34 0.0 0.0 0.00 0.00 0.00 88 1013.4
20210122023026 34 0.0 0.0 0.00 0.00 0.00 87 1013.6
20210122022027 34 0.0 0.0 0.00 0.00 0.00 86 1013.6
20210122021048 35 0.0 0.0 0.00 0.00 0.00 86 1013.6
20210122020036 35 0.0 0.0 0.00 0.00 0.00 85 1013.4
20210122015022 36 0.0 0.0 0.00 0.00 0.00 84 1013.4
20210122014024 36 0.0 0.0 0.00 0.00 0.00 84 1013.3
20210122013026 37 0.0 0.0 0.00 0.00 0.00 83 1013.3
20210122012040 37 0.0 0.0 0.00 0.00 0.00 81 1013.4
20210122011029 38 0.0 0.0 0.00 0.00 0.00 80 1013.1
20210122010029 39 0.0 0.0 0.00 0.00 0.00 79 1013.1
20210122005023 39 0.0 0.0 0.00 0.00 0.00 77 1013.2
20210122004029 40 0.0 0.0 0.00 0.00 0.00 76 1013.2
20210122003032 40 0.0 0.0 0.00 0.00 0.00 76 1013.4
20210122002025 40 0.0 0.0 0.00 0.00 0.00 77 1013.3
20210122001021 40 0.0 0.0 0.00 0.00 0.00 77 1013.2
20210122000046 41 0.0 0.0 0.00 0.00 0.00 75 1013.2
20210121235040 42 0.0 0.0 0.00 0.00 0.00 76 1013.2
20210121234030 43 0.0 0.0 0.00 0.00 0.00 71 1013.2
20210121233035 44 0.0 0.0 0.00 0.00 0.00 66 1013.3
20210121232021 46 0.0 0.0 0.00 0.00 0.00 64 1013.2
20210121231022 46 0.0 0.0 0.00 0.00 0.00 62 1013.2
20210121230024 47 0.0 0.9 0.00 0.00 0.00 61 1013.2
20210121225031 47 0.0 2.6 0.00 0.00 0.00 62 1013.1
20210121224021 48 234 0.9 4.3 0.00 0.00 0.00 61 1013.2
20210121223022 48 234 0.9 3.5 0.00 0.00 0.00 60 1013.4
20210121222029 49 234 1.7 4.3 0.00 0.00 0.00 59 1013.3
20210121221026 49 234 0.9 4.3 0.00 0.00 0.00 62 1013.3
20210121220031 50 233 2.6 5.2 0.00 0.00 0.00 60 1013.1
20210121215025 50 236 1.7 4.3 0.00 0.00 0.00 60 1013.1
20210121214023 50 236 2.6 4.3 0.00 0.00 0.00 60 1013.0
20210121213023 51 236 0.0 4.3 0.00 0.00 0.00 62 1013.1
20210121212023 51 235 2.6 6.1 0.00 0.00 0.00 61 1013.1
20210121211030 51 235 1.7 7.0 0.00 0.00 0.00 59 1013.0
20210121210033 52 239 2.6 7.8 0.00 0.00 0.00 57 1013.0
20210121205022 51 261 1.7 5.2 0.00 0.00 0.00 59 1012.9
20210121204028 51 225 2.6 7.0 0.00 0.00 0.00 58 1013.0
20210121203028 51 225 1.7 6.1 0.00 0.00 0.00 59 1012.9
20210121202026 51 231 1.7 6.1 0.00 0.00 0.00 57 1013.0
20210121201024 51 246 1.7 5.2 0.00 0.00 0.00 58 1013.0
20210121200026 51 251 1.7 6.1 0.00 0.00 0.00 60 1013.0
20210121195022 50 258 1.7 5.2 0.00 0.00 0.00 62 1013.1
20210121194024 50 269 2.6 7.8 0.00 0.00 0.00 61 1013.2
20210121193038 50 256 1.7 7.8 0.00 0.00 0.00 63 1013.2
20210121192029 50 253 1.7 7.0 0.00 0.00 0.00 64 1013.3
20210121191023 49 256 2.6 7.8 0.00 0.00 0.00 65 1013.4
20210121190026 48 237 2.6 6.1 0.00 0.00 0.00 67 1013.3
20210121185024 48 256 1.7 6.1 0.00 0.00 0.00 70 1013.1
20210121184022 47 260 1.7 6.1 0.00 0.00 0.00 72 1013.4
20210121183038 47 260 2.6 6.1 0.00 0.00 0.00 72 1013.6
20210121182029 46 247 1.7 5.2 0.00 0.00 0.00 73 1013.7
20210121181022 46 251 2.6 6.1 0.00 0.00 0.00 74 1013.7
20210121180025 46 272 2.6 6.1 0.00 0.00 0.00 76 1013.8
20210121175024 45 275 1.7 5.2 0.00 0.00 0.00 76 1013.9
20210121174025 45 302 2.6 6.1 0.00 0.00 0.00 77 1014.0
20210121173033 44 275 2.6 7.0 0.00 0.00 0.00 77 1014.3
20210121172029 44 282 4.3 7.0 0.00 0.00 0.00 78 1014.6
20210121171023 44 287 4.3 7.8 0.00 0.00 0.00 79 1014.7
20210121170027 44 289 4.3 7.8 0.00 0.00 0.00 80 1014.8
20210121165033 43 291 4.3 9.6 0.00 0.00 0.00 80 1014.8
20210121164022 44 287 5.2 8.7 0.00 0.00 0.00 82 1015.1
20210121163026 43 286 6.1 9.6 0.00 0.00 0.00 83 1015.3
20210121162023 42 282 7.8 10.4 0.00 0.00 0.00 85 1015.3
20210121161029 42 287 5.2 8.7 0.00 0.00 0.00 87 1015.1
20210121160029 41 272 4.3 7.0 0.00 0.00 0.00 90 1015.1
20210121155025 41 273 4.3 7.0 0.00 0.00 0.00 91 1015.1
20210121154021 40 267 3.5 6.1 0.00 0.00 0.00 92 1014.9
20210121153026 40 260 1.7 4.3 0.00 0.00 0.00 93 1014.9
20210121152020 39 214 1.7 4.3 0.00 0.00 0.00 94 1014.9
20210121151021 38 201 0.9 4.3 0.00 0.00 0.00 94 1014.9
20210121150033 38 193 1.7 3.5 0.00 0.00 0.00 95 1014.8
20210121145023 37 193 0.9 3.5 0.00 0.00 0.00 95 1014.7
20210121144032 37 0.0 0.0 0.00 0.00 0.00 95 1014.4
20210121143030 37 192 0.0 2.6 0.00 0.00 0.00 95 1014.3
20210121142020 36 192 0.0 3.5 0.00 0.00 0.00 95 1014.4
20210121141021 36 192 0.0 2.6 0.00 0.00 0.00 95 1014.2
20210121140034 36 192 0.0 2.6 0.00 0.00 0.00 95 1014.4
20210121135026 36 192 0.9 4.3 0.00 0.00 0.00 95 1014.0
20210121134024 36 192 0.0 2.6 0.00 0.00 0.00 95 1014.1
20210121133023 36 192 0.0 1.7 0.00 0.00 0.00 95 1013.9
20210121132040 35 192 0.0 1.7 0.00 0.00 0.00 95 1014.1
20210121131021 35 192 0.0 2.6 0.00 0.00 0.00 95 1014.0
20210121130024 35 192 0.0 2.6 0.00 0.00 0.00 95 1014.0
20210121125021 35 192 0.0 2.6 0.00 0.00 0.00 95 1014.0
20210121124033 35 192 0.0 1.7 0.00 0.00 0.00 94 1014.2
20210121123026 36 192 0.0 2.6 0.00 0.00 0.00 95 1014.0
20210121122032 36 192 0.0 2.6 0.00 0.00 0.00 94 1014.0
20210121121049 36 192 0.0 2.6 0.00 0.00 0.00 94 1013.9
20210121120027 36 192 0.9 4.3 0.00 0.00 0.00 94 1013.9
20210121115042 36 190 1.7 3.5 0.00 0.00 0.00 94 1013.9
20210121114023 37 194 0.9 3.5 0.00 0.00 0.00 94 1013.8
20210121113027 37 196 0.9 5.2 0.00 0.00 0.00 94 1014.0
20210121112041 37 198 2.6 6.1 0.00 0.00 0.00 94 1014.0
20210121111039 37 193 3.5 6.1 0.00 0.00 0.00 94 1013.9
20210121110037 37 195 2.6 5.2 0.00 0.00 0.00 94 1013.9
20210121105027 37 192 1.7 4.3 0.00 0.00 0.00 94 1013.7
20210121104021 37 192 0.9 4.3 0.00 0.00 0.00 94 1013.8
20210121103021 37 183 0.0 3.5 0.00 0.00 0.00 93 1013.6
20210121102024 37 183 0.0 3.5 0.00 0.00 0.00 93 1013.9
20210121101026 37 187 0.9 4.3 0.00 0.00 0.00 93 1013.8
20210121100035 38 188 1.7 5.2 0.00 0.00 0.00 93 1014.2
20210121095023 37 187 2.6 7.0 0.00 0.00 0.00 93 1014.2
20210121094019 37 200 0.0 4.3 0.00 0.00 0.00 92 1014.1
20210121093031 38 204 0.9 3.5 0.00 0.00 0.00 92 1014.1
20210121092031 38 204 0.0 3.5 0.00 0.00 0.00 92 1014.1
20210121091021 38 203 0.9 3.5 0.00 0.00 0.00 91 1014.3
20210121090026 38 200 1.7 5.2 0.00 0.00 0.00 91 1014.3
20210121085024 38 196 1.7 5.2 0.00 0.00 0.00 91 1014.4
20210121084030 39 204 1.7 4.3 0.00 0.00 0.00 90 1014.4
20210121083038 39 206 0.9 5.2 0.00 0.00 0.00 89 1014.7
20210121082034 39 191 3.5 6.1 0.00 0.00 0.00 89 1014.7
20210121081030 40 196 2.6 6.1 0.00 0.00 0.00 88 1014.5
20210121080033 40 193 3.5 7.0 0.00 0.00 0.00 88 1014.6
20210121075029 40 196 2.6 8.7 0.00 0.00 0.00 87 1014.5
20210121074029 40 196 3.5 9.6 0.00 0.00 0.00 86 1014.3
20210121073041 41 197 4.3 8.7 0.00 0.00 0.00 85 1014.6
20210121072023 41 190 3.5 10.4 0.00 0.00 0.00 84 1014.4
20210121071022 41 192 3.5 8.7 0.00 0.00 0.00 83 1014.3
20210121070041 41 194 4.3 9.6 0.00 0.00 0.00 83 1014.4
20210121065025 41 194 4.3 13.0 0.00 0.00 0.00 82 1014.4
20210121064025 41 193 4.3 8.7 0.00 0.00 0.00 82 1014.5
20210121063027 41 196 4.3 9.6 0.00 0.00 0.00 81 1014.7
20210121062038 41 197 4.3 9.6 0.00 0.00 0.00 81 1014.7